| time (UTC) | temp C | wind direction | speed KPH | gust KPH | rain 1hr cm | rain 24hr cm | rain mn cm | humidity % | barometer mb |
| 20260510142003 | 23 | 46 | 0.0 | 8.0 | 0.00 | 0.03 | 0.00 | 55 | 1013.4 |
| 20260510141517 | 23 | 296 | 3.2 | 8.0 | 0.00 | 0.03 | 0.00 | 57 | 1013.4 |
| 20260510141004 | 23 | 304 | 0.0 | 6.4 | 0.00 | 0.03 | 0.00 | 58 | 1013.6 |
| 20260510140503 | 23 | 241 | 1.6 | 6.4 | 0.00 | 0.03 | 0.00 | 59 | 1013.7 |
| 20260510140012 | 23 | 360 | 1.6 | 6.4 | 0.00 | 0.03 | 0.00 | 59 | 1013.7 |
| 20260510135503 | 22 | 277 | 1.6 | 6.4 | 0.00 | 0.03 | 0.00 | 62 | 1013.7 |
| 20260510135003 | 22 | 225 | 1.6 | 6.4 | 0.00 | 0.03 | 0.00 | 62 | 1013.7 |
| 20260510134508 | 22 | 26 | 1.6 | 6.4 | 0.00 | 0.03 | 0.00 | 63 | 1013.7 |
| 20260510134004 | 22 | 328 | 0.0 | 6.4 | 0.00 | 0.03 | 0.00 | 63 | 1013.7 |
| 20260510133504 | 21 | 284 | 1.6 | 6.4 | 0.00 | 0.03 | 0.00 | 65 | 1013.7 |
| 20260510133018 | 21 | 294 | 0.0 | 3.2 | 0.00 | 0.03 | 0.00 | 66 | 1013.6 |
| 20260510132507 | 21 | 251 | 0.0 | 3.2 | 0.00 | 0.03 | 0.00 | 69 | 1013.6 |
| 20260510132007 | 20 | 113 | 0.0 | 3.2 | 0.00 | 0.03 | 0.00 | 69 | 1013.6 |
| 20260510131507 | 20 | 113 | 0.0 | 0.0 | 0.00 | 0.03 | 0.00 | 72 | 1013.4 |
| 20260510131004 | 19 | 92 | 0.0 | 0.0 | 0.00 | 0.03 | 0.00 | 73 | 1013.6 |
| 20260510130504 | 18 | 304 | 0.0 | 0.0 | 0.00 | 0.03 | 0.00 | 75 | 1013.7 |
| 20260510130010 | 18 | 304 | 0.0 | 0.0 | 0.00 | 0.03 | 0.00 | 78 | 1013.7 |
| 20260510125504 | 17 | 304 | 0.0 | 0.0 | 0.00 | 0.03 | 0.00 | 80 | 1013.9 |
| 20260510125003 | 17 | 94 | 0.0 | 1.6 | 0.00 | 0.03 | 0.00 | 81 | 1013.9 |
| 20260510124512 | 16 | 94 | 0.0 | 3.2 | 0.00 | 0.03 | 0.00 | 85 | 1013.9 |
| 20260510124007 | 15 | 94 | 0.0 | 4.8 | 0.00 | 0.03 | 0.00 | 90 | 1014.0 |
| 20260510123507 | 15 | 94 | 0.0 | 6.4 | 0.00 | 0.03 | 0.00 | 95 | 1013.9 |
| 20260510123007 | 13 | 94 | 0.0 | 6.4 | 0.00 | 0.03 | 0.00 | 96 | 1014.0 |
| 20260510122503 | 13 | 151 | 0.0 | 0.0 | 0.00 | 0.03 | 0.00 | 96 | 1014.0 |
| 20260510122005 | 13 | 151 | 0.0 | 0.0 | 0.00 | 0.03 | 0.00 | 96 | 1014.0 |
| 20260510121514 | 12 | 152 | 0.0 | 1.6 | 0.00 | 0.03 | 0.00 | 96 | 1013.8 |
| 20260510121006 | 12 | 151 | 0.0 | 3.2 | 0.00 | 0.03 | 0.00 | 97 | 1013.8 |
| 20260510120506 | 12 | 152 | 0.0 | 3.2 | 0.00 | 0.03 | 0.00 | 96 | 1013.7 |
| 20260510120007 | 12 | 151 | 0.0 | 0.0 | 0.00 | 0.03 | 0.00 | 96 | 1013.7 |
| 20260510115504 | 11 | 152 | 0.0 | 0.0 | 0.00 | 0.03 | 0.00 | 96 | 1013.7 |
| 20260510115004 | 11 | 152 | 0.0 | 0.0 | 0.00 | 0.03 | 0.00 | 96 | 1013.6 |
| 20260510114507 | 11 | 151 | 0.0 | 0.0 | 0.00 | 0.03 | 0.00 | 96 | 1013.5 |
| 20260510114005 | 10 | 151 | 0.0 | 0.0 | 0.00 | 0.03 | 0.00 | 96 | 1013.5 |
| 20260510113504 | 10 | 151 | 0.0 | 0.0 | 0.00 | 0.03 | 0.00 | 96 | 1013.4 |
| 20260510113016 | 10 | 151 | 0.0 | 0.0 | 0.00 | 0.03 | 0.00 | 96 | 1013.2 |
| 20260510112508 | 9 | 151 | 0.0 | 0.0 | 0.00 | 0.03 | 0.00 | 96 | 1013.3 |
| 20260510112008 | 9 | 151 | 0.0 | 3.2 | 0.00 | 0.03 | 0.00 | 96 | 1013.1 |
| 20260510111518 | 9 | 151 | 0.0 | 3.2 | 0.00 | 0.03 | 0.00 | 96 | 1013.1 |
| 20260510111004 | 8 | 151 | 0.0 | 3.2 | 0.00 | 0.03 | 0.00 | 96 | 1013.1 |
| 20260510110504 | 8 | 151 | 0.0 | 3.2 | 0.00 | 0.03 | 0.00 | 96 | 1012.9 |
| 20260510110013 | 8 | 151 | 0.0 | 3.2 | 0.00 | 0.03 | 0.00 | 95 | 1012.9 |
| 20260510105507 | 8 | 34 | 0.0 | 0.0 | 0.00 | 0.03 | 0.00 | 95 | 1012.9 |
| 20260510105006 | 8 | 34 | 0.0 | 0.0 | 0.00 | 0.03 | 0.00 | 95 | 1012.7 |
| 20260510104520 | 8 | 34 | 0.0 | 0.0 | 0.00 | 0.03 | 0.00 | 95 | 1012.6 |
| 20260510104003 | 8 | 34 | 0.0 | 0.0 | 0.00 | 0.03 | 0.00 | 95 | 1012.4 |
| 20260510103504 | 8 | 34 | 0.0 | 0.0 | 0.00 | 0.03 | 0.00 | 95 | 1012.2 |
| 20260510103011 | 8 | 34 | 0.0 | 0.0 | 0.00 | 0.03 | 0.00 | 95 | 1012.1 |
| 20260510102504 | 8 | 34 | 0.0 | 0.0 | 0.00 | 0.03 | 0.00 | 95 | 1012.0 |
| 20260510102007 | 8 | 34 | 0.0 | 0.0 | 0.00 | 0.03 | 0.00 | 95 | 1012.0 |
| 20260510101516 | 8 | 34 | 0.0 | 0.0 | 0.00 | 0.03 | 0.00 | 95 | 1012.0 |
| 20260510101008 | 8 | 34 | 0.0 | 0.0 | 0.00 | 0.03 | 0.00 | 95 | 1011.9 |
| 20260510100507 | 8 | 34 | 0.0 | 0.0 | 0.00 | 0.03 | 0.00 | 95 | 1011.9 |
| 20260510100024 | 8 | 34 | 0.0 | 0.0 | 0.00 | 0.03 | 0.00 | 95 | 1011.9 |
| 20260510095508 | 8 | 34 | 0.0 | 0.0 | 0.00 | 0.03 | 0.00 | 95 | 1012.0 |
| 20260510095008 | 8 | 34 | 0.0 | 0.0 | 0.00 | 0.03 | 0.00 | 95 | 1012.1 |
| 20260510094530 | 8 | 34 | 0.0 | 0.0 | 0.00 | 0.03 | 0.00 | 95 | 1012.0 |
| 20260510094005 | 8 | 34 | 0.0 | 0.0 | 0.00 | 0.03 | 0.00 | 95 | 1012.0 |
| 20260510093508 | 8 | 34 | 0.0 | 0.0 | 0.00 | 0.03 | 0.00 | 95 | 1012.2 |
| 20260510093012 | 8 | 34 | 0.0 | 0.0 | 0.00 | 0.03 | 0.00 | 95 | 1012.0 |
| 20260510092504 | 8 | 34 | 0.0 | 0.0 | 0.00 | 0.03 | 0.00 | 94 | 1012.0 |
| 20260510092007 | 8 | 34 | 0.0 | 0.0 | 0.00 | 0.03 | 0.00 | 94 | 1012.0 |
| 20260510091515 | 8 | 34 | 0.0 | 0.0 | 0.00 | 0.03 | 0.00 | 94 | 1011.9 |
| 20260510091005 | 8 | 34 | 0.0 | 0.0 | 0.00 | 0.03 | 0.00 | 94 | 1011.9 |
| 20260510090505 | 8 | 34 | 0.0 | 0.0 | 0.00 | 0.03 | 0.00 | 94 | 1011.9 |
| 20260510090016 | 8 | 34 | 0.0 | 0.0 | 0.00 | 0.03 | 0.00 | 94 | 1011.8 |
| 20260510085506 | 8 | 34 | 0.0 | 0.0 | 0.00 | 0.03 | 0.00 | 94 | 1011.8 |
| 20260510085008 | 8 | 34 | 0.0 | 0.0 | 0.00 | 0.03 | 0.00 | 94 | 1011.7 |
| 20260510084524 | 8 | 34 | 0.0 | 0.0 | 0.00 | 0.03 | 0.00 | 94 | 1011.8 |
| 20260510084007 | 8 | 34 | 0.0 | 0.0 | 0.00 | 0.03 | 0.00 | 94 | 1011.7 |
| 20260510083509 | 8 | 34 | 0.0 | 0.0 | 0.00 | 0.03 | 0.00 | 94 | 1011.7 |
| 20260510083025 | 8 | 34 | 0.0 | 0.0 | 0.00 | 0.03 | 0.00 | 94 | 1011.6 |
| 20260510082504 | 9 | 34 | 0.0 | 0.0 | 0.00 | 0.03 | 0.00 | 94 | 1011.6 |
| 20260510082003 | 9 | 34 | 0.0 | 0.0 | 0.00 | 0.03 | 0.00 | 94 | 1011.6 |
| 20260510081528 | 9 | 34 | 0.0 | 0.0 | 0.00 | 0.03 | 0.00 | 94 | 1011.5 |
| 20260510081005 | 9 | 34 | 0.0 | 0.0 | 0.00 | 0.03 | 0.00 | 94 | 1011.4 |
| 20260510080505 | 9 | 34 | 0.0 | 0.0 | 0.00 | 0.03 | 0.00 | 94 | 1011.3 |
| 20260510080015 | 9 | 34 | 0.0 | 0.0 | 0.00 | 0.03 | 0.00 | 94 | 1011.1 |
| 20260510075505 | 9 | 34 | 0.0 | 0.0 | 0.00 | 0.03 | 0.00 | 94 | 1011.0 |
| 20260510075005 | 9 | 34 | 0.0 | 0.0 | 0.00 | 0.03 | 0.00 | 94 | 1010.9 |
| 20260510074513 | 9 | 34 | 0.0 | 0.0 | 0.00 | 0.03 | 0.00 | 94 | 1010.9 |
| 20260510074006 | 9 | 34 | 0.0 | 0.0 | 0.00 | 0.03 | 0.00 | 94 | 1010.8 |
| 20260510073507 | 10 | 34 | 0.0 | 0.0 | 0.00 | 0.03 | 0.00 | 94 | 1010.9 |
| 20260510073020 | 10 | 34 | 0.0 | 0.0 | 0.00 | 0.03 | 0.00 | 94 | 1010.8 |
| 20260510072506 | 10 | 34 | 0.0 | 0.0 | 0.00 | 0.03 | 0.00 | 94 | 1010.9 |
| 20260510072011 | 10 | 34 | 0.0 | 0.0 | 0.00 | 0.03 | 0.00 | 94 | 1010.9 |
| 20260510071526 | 10 | 34 | 0.0 | 0.0 | 0.00 | 0.03 | 0.00 | 94 | 1010.8 |
| 20260510071011 | 10 | 34 | 0.0 | 0.0 | 0.00 | 0.03 | 0.00 | 94 | 1010.8 |
| 20260510070515 | 10 | 34 | 0.0 | 0.0 | 0.00 | 0.03 | 0.00 | 93 | 1010.7 |
| 20260510070016 | 10 | 34 | 0.0 | 0.0 | 0.00 | 0.03 | 0.00 | 93 | 1010.6 |
| 20260510065506 | 10 | 34 | 0.0 | 0.0 | 0.00 | 0.03 | 0.00 | 93 | 1010.6 |
| 20260510065009 | 10 | 34 | 0.0 | 0.0 | 0.00 | 0.03 | 0.00 | 93 | 1010.6 |
| 20260510064520 | 10 | 34 | 0.0 | 0.0 | 0.00 | 0.03 | 0.00 | 93 | 1010.6 |
| 20260510064006 | 10 | 34 | 0.0 | 0.0 | 0.00 | 0.03 | 0.00 | 93 | 1010.6 |
| 20260510063508 | 10 | 34 | 0.0 | 0.0 | 0.00 | 0.03 | 0.00 | 93 | 1010.6 |
| 20260510063024 | 10 | 34 | 0.0 | 0.0 | 0.00 | 0.03 | 0.00 | 93 | 1010.6 |
| 20260510062508 | 10 | 34 | 0.0 | 0.0 | 0.00 | 0.03 | 0.00 | 93 | 1010.7 |
| 20260510062008 | 11 | 34 | 0.0 | 0.0 | 0.00 | 0.03 | 0.00 | 93 | 1010.6 |
| 20260510061526 | 11 | 34 | 0.0 | 0.0 | 0.00 | 0.03 | 0.00 | 93 | 1010.6 |
| 20260510061007 | 11 | 34 | 0.0 | 0.0 | 0.00 | 0.03 | 0.00 | 93 | 1010.5 |
| 20260510060515 | 11 | 34 | 0.0 | 0.0 | 0.00 | 0.03 | 0.00 | 93 | 1010.5 |
| 20260510060026 | 11 | 34 | 0.0 | 0.0 | 0.00 | 0.03 | 0.00 | 93 | 1010.6 |
| 20260510055512 | 11 | 34 | 0.0 | 0.0 | 0.00 | 0.03 | 0.00 | 93 | 1010.7 |
| 20260510055011 | 11 | 34 | 0.0 | 0.0 | 0.00 | 0.03 | 0.00 | 93 | 1010.7 |
| 20260510054518 | 11 | 34 | 0.0 | 1.6 | 0.00 | 0.03 | 0.00 | 93 | 1010.8 |
| 20260510054006 | 11 | 34 | 0.0 | 1.6 | 0.00 | 0.03 | 0.00 | 93 | 1010.7 |
| 20260510053507 | 11 | 34 | 0.0 | 1.6 | 0.00 | 0.03 | 0.00 | 93 | 1010.7 |
| 20260510053024 | 11 | 34 | 0.0 | 1.6 | 0.00 | 0.03 | 0.00 | 93 | 1010.8 |
| 20260510052507 | 11 | 34 | 0.0 | 3.2 | 0.00 | 0.03 | 0.00 | 93 | 1010.7 |
| 20260510052007 | 11 | 34 | 0.0 | 3.2 | 0.00 | 0.03 | 0.00 | 93 | 1010.8 |
| 20260510051532 | 11 | 34 | 0.0 | 3.2 | 0.00 | 0.03 | 0.00 | 92 | 1010.7 |
| 20260510051007 | 11 | 34 | 0.0 | 3.2 | 0.00 | 0.03 | 0.00 | 92 | 1010.8 |
| 20260510050509 | 12 | 34 | 0.0 | 1.6 | 0.00 | 0.03 | 0.00 | 92 | 1010.7 |
| 20260510050018 | 12 | 34 | 0.0 | 1.6 | 0.00 | 0.03 | 0.00 | 92 | 1010.8 |
| 20260510045506 | 12 | 34 | 0.0 | 1.6 | 0.00 | 0.03 | 0.00 | 92 | 1010.8 |
| 20260510045003 | 12 | 34 | 0.0 | 0.0 | 0.00 | 0.03 | 0.00 | 92 | 1010.9 |
| 20260510044508 | 12 | 34 | 0.0 | 0.0 | 0.00 | 0.03 | 0.00 | 92 | 1010.9 |
| 20260510044004 | 12 | 34 | 0.0 | 0.0 | 0.00 | 0.03 | 0.00 | 91 | 1010.9 |
| 20260510043504 | 12 | 34 | 0.0 | 0.0 | 0.00 | 0.03 | 0.00 | 92 | 1010.9 |
| 20260510043020 | 12 | 34 | 0.0 | 0.0 | 0.00 | 0.03 | 0.00 | 92 | 1011.0 |
| 20260510042508 | 12 | 34 | 0.0 | 0.0 | 0.00 | 0.03 | 0.00 | 91 | 1010.9 |
| 20260510042007 | 12 | 34 | 0.0 | 0.0 | 0.00 | 0.03 | 0.00 | 91 | 1010.9 |
| 20260510041520 | 12 | 34 | 0.0 | 0.0 | 0.00 | 0.03 | 0.00 | 91 | 1010.9 |
| 20260510041004 | 12 | 34 | 0.0 | 0.0 | 0.00 | 0.03 | 0.00 | 91 | 1010.8 |
| 20260510040504 | 12 | 34 | 0.0 | 0.0 | 0.00 | 0.03 | 0.00 | 90 | 1010.8 |
| 20260510040006 | 13 | 34 | 0.0 | 0.0 | 0.00 | 0.03 | 0.00 | 90 | 1010.8 |
| 20260510035503 | 13 | 34 | 0.0 | 0.0 | 0.00 | 0.03 | 0.03 | 90 | 1010.8 |
| 20260510035006 | 13 | 34 | 0.0 | 0.0 | 0.00 | 0.03 | 0.03 | 90 | 1010.7 |
| 20260510034511 | 13 | 34 | 0.0 | 0.0 | 0.00 | 0.03 | 0.03 | 90 | 1010.7 |
| 20260510034007 | 13 | 34 | 0.0 | 0.0 | 0.00 | 0.03 | 0.03 | 90 | 1010.7 |
| 20260510033507 | 13 | 34 | 0.0 | 0.0 | 0.00 | 0.03 | 0.03 | 90 | 1010.8 |
| 20260510033017 | 13 | 34 | 0.0 | 0.0 | 0.00 | 0.03 | 0.03 | 89 | 1010.7 |
| 20260510032502 | 13 | 34 | 0.0 | 0.0 | 0.00 | 0.03 | 0.03 | 89 | 1010.7 |
| 20260510032002 | 13 | 34 | 0.0 | 0.0 | 0.00 | 0.03 | 0.03 | 89 | 1010.7 |
| 20260510031508 | 13 | 34 | 0.0 | 0.0 | 0.00 | 0.03 | 0.03 | 89 | 1010.7 |
| 20260510031004 | 14 | 34 | 0.0 | 0.0 | 0.00 | 0.03 | 0.03 | 88 | 1010.7 |
| 20260510030507 | 14 | 34 | 0.0 | 0.0 | 0.00 | 0.03 | 0.03 | 87 | 1010.6 |
| 20260510030018 | 14 | 34 | 0.0 | 1.6 | 0.00 | 0.03 | 0.03 | 87 | 1010.6 |
| 20260510025505 | 14 | 34 | 0.0 | 1.6 | 0.00 | 0.03 | 0.03 | 87 | 1010.6 |
| 20260510025005 | 14 | 34 | 0.0 | 3.2 | 0.00 | 0.03 | 0.03 | 86 | 1010.4 |
| 20260510024506 | 15 | 34 | 0.0 | 3.2 | 0.00 | 0.03 | 0.03 | 86 | 1010.5 |
| 20260510024003 | 15 | 34 | 0.0 | 1.6 | 0.00 | 0.03 | 0.03 | 86 | 1010.6 |
| 20260510023504 | 15 | 34 | 0.0 | 1.6 | 0.00 | 0.03 | 0.03 | 86 | 1010.6 |
| 20260510023013 | 15 | 34 | 0.0 | 1.6 | 0.00 | 0.03 | 0.03 | 86 | 1010.5 |
| 20260510022508 | 15 | 34 | 0.0 | 1.6 | 0.00 | 0.03 | 0.03 | 86 | 1010.6 |
| 20260510022005 | 15 | 34 | 0.0 | 4.8 | 0.00 | 0.03 | 0.03 | 86 | 1010.6 |
| 20260510021525 | 15 | 34 | 0.0 | 4.8 | 0.00 | 0.03 | 0.03 | 85 | 1010.7 |
| 20260510021007 | 15 | 5 | 0.0 | 3.2 | 0.00 | 0.03 | 0.03 | 84 | 1010.6 |
| 20260510020509 | 15 | 5 | 0.0 | 4.8 | 0.00 | 0.03 | 0.03 | 84 | 1010.4 |
| 20260510020008 | 15 | 5 | 0.0 | 4.8 | 0.00 | 0.03 | 0.03 | 83 | 1010.3 |
| 20260510015503 | 16 | 5 | 1.6 | 6.4 | 0.00 | 0.03 | 0.03 | 83 | 1010.3 |
| 20260510015006 | 16 | 24 | 1.6 | 6.4 | 0.00 | 0.03 | 0.03 | 83 | 1010.3 |
| 20260510014518 | 16 | 48 | 1.6 | 6.4 | 0.00 | 0.03 | 0.03 | 82 | 1010.2 |
| 20260510014004 | 16 | 40 | 1.6 | 8.0 | 0.00 | 0.03 | 0.03 | 82 | 1010.1 |
| 20260510013504 | 16 | 46 | 3.2 | 8.0 | 0.00 | 0.03 | 0.03 | 81 | 1010.2 |
| 20260510013010 | 16 | 26 | 0.0 | 6.4 | 0.00 | 0.03 | 0.03 | 80 | 1010.1 |
| 20260510012504 | 16 | 75 | 1.6 | 9.7 | 0.00 | 0.03 | 0.03 | 80 | 1010.1 |
| 20260510012004 | 16 | 96 | 1.6 | 9.7 | 0.00 | 0.03 | 0.03 | 79 | 1010.1 |
| 20260510011512 | 16 | 51 | 3.2 | 9.7 | 0.00 | 0.03 | 0.03 | 78 | 1010.0 |
| 20260510011005 | 17 | 67 | 0.0 | 6.4 | 0.00 | 0.03 | 0.03 | 77 | 1010.0 |
| 20260510010505 | 17 | 84 | 1.6 | 6.4 | 0.00 | 0.03 | 0.03 | 77 | 1009.9 |
| 20260510010021 | 17 | 91 | 1.6 | 6.4 | 0.00 | 0.03 | 0.03 | 76 | 1009.9 |
| 20260510005508 | 17 | 74 | 0.0 | 4.8 | 0.00 | 0.03 | 0.03 | 75 | 1009.8 |
| 20260510005008 | 17 | 89 | 1.6 | 11.3 | 0.00 | 0.03 | 0.03 | 75 | 1009.7 |
| 20260510004522 | 17 | 96 | 3.2 | 11.3 | 0.00 | 0.03 | 0.03 | 75 | 1009.6 |
| 20260510004002 | 18 | 69 | 1.6 | 4.8 | 0.00 | 0.03 | 0.03 | 74 | 1009.5 |
| 20260510003504 | 18 | 76 | 1.6 | 4.8 | 0.00 | 0.03 | 0.03 | 74 | 1009.3 |
| 20260510003018 | 18 | 96 | 1.6 | 6.4 | 0.00 | 0.03 | 0.03 | 73 | 1009.3 |
| 20260510002505 | 18 | 130 | 1.6 | 6.4 | 0.00 | 0.03 | 0.03 | 72 | 1009.4 |
| 20260510002003 | 18 | 142 | 0.0 | 6.4 | 0.00 | 0.03 | 0.03 | 71 | 1009.4 |
| 20260510001511 | 19 | 133 | 1.6 | 6.4 | 0.00 | 0.03 | 0.03 | 71 | 1009.4 |
| 20260510001006 | 19 | 140 | 3.2 | 8.0 | 0.00 | 0.03 | 0.03 | 70 | 1009.4 |
| 20260510000506 | 19 | 99 | 1.6 | 8.0 | 0.00 | 0.03 | 0.03 | 71 | 1009.4 |
| 20260510000013 | 19 | 107 | 1.6 | 8.0 | 0.00 | 0.03 | 0.03 | 70 | 1009.4 |
| 20260509235506 | 19 | 124 | 0.0 | 6.4 | 0.00 | 0.03 | 0.03 | 69 | 1009.3 |
| 20260509235006 | 20 | 115 | 0.0 | 9.7 | 0.00 | 0.03 | 0.03 | 69 | 1009.3 |
| 20260509234519 | 20 | 89 | 3.2 | 9.7 | 0.00 | 0.03 | 0.03 | 69 | 1009.2 |
| 20260509234013 | 20 | 146 | 3.2 | 9.7 | 0.00 | 0.03 | 0.03 | 68 | 1009.1 |
| 20260509233508 | 20 | 90 | 3.2 | 14.5 | 0.00 | 0.03 | 0.03 | 68 | 1009.1 |
| 20260509233023 | 20 | 121 | 1.6 | 14.5 | 0.00 | 0.03 | 0.03 | 67 | 1009.0 |
| 20260509232508 | 20 | 113 | 3.2 | 9.7 | 0.00 | 0.03 | 0.03 | 67 | 1009.0 |
| 20260509232002 | 20 | 131 | 1.6 | 11.3 | 0.00 | 0.03 | 0.03 | 66 | 1009.0 |
| 20260509231514 | 20 | 98 | 1.6 | 11.3 | 0.00 | 0.03 | 0.03 | 66 | 1009.0 |
| 20260509231004 | 21 | 133 | 3.2 | 9.7 | 0.00 | 0.03 | 0.03 | 66 | 1008.9 |
| 20260509230505 | 21 | 92 | 3.2 | 9.7 | 0.00 | 0.03 | 0.03 | 66 | 1008.9 |
| 20260509230015 | 21 | 111 | 3.2 | 11.3 | 0.00 | 0.03 | 0.03 | 65 | 1008.9 |
| 20260509225506 | 21 | 71 | 4.8 | 11.3 | 0.00 | 0.03 | 0.03 | 64 | 1008.8 |
| 20260509225006 | 21 | 105 | 4.8 | 11.3 | 0.00 | 0.03 | 0.03 | 63 | 1008.8 |
| 20260509224517 | 21 | 113 | 1.6 | 11.3 | 0.00 | 0.03 | 0.03 | 62 | 1008.9 |
| 20260509224002 | 21 | 82 | 3.2 | 11.3 | 0.00 | 0.03 | 0.03 | 62 | 1008.9 |
| 20260509223507 | 21 | 115 | 0.0 | 6.4 | 0.00 | 0.03 | 0.03 | 62 | 1009.0 |
| 20260509223019 | 21 | 123 | 1.6 | 6.4 | 0.00 | 0.03 | 0.03 | 61 | 1008.9 |
| 20260509222508 | 21 | 104 | 1.6 | 6.4 | 0.00 | 0.03 | 0.03 | 61 | 1009.0 |
| 20260509222011 | 22 | 169 | 0.0 | 6.4 | 0.00 | 0.03 | 0.03 | 59 | 1008.9 |
| 20260509221525 | 22 | 134 | 0.0 | 9.7 | 0.00 | 0.03 | 0.03 | 59 | 1008.9 |
| 20260509221005 | 22 | 93 | 1.6 | 9.7 | 0.00 | 0.03 | 0.03 | 58 | 1008.9 |
| 20260509220507 | 22 | 115 | 0.0 | 9.7 | 0.00 | 0.03 | 0.03 | 58 | 1009.0 |
| 20260509220010 | 22 | 119 | 0.0 | 9.7 | 0.00 | 0.03 | 0.03 | 60 | 1008.9 |
| 20260509215504 | 22 | 132 | 3.2 | 9.7 | 0.00 | 0.03 | 0.03 | 60 | 1008.9 |
| 20260509215004 | 22 | 77 | 3.2 | 9.7 | 0.00 | 0.03 | 0.03 | 61 | 1008.9 |
| 20260509214518 | 22 | 152 | 1.6 | 8.0 | 0.00 | 0.03 | 0.03 | 60 | 1009.0 |
| 20260509214008 | 22 | 73 | 1.6 | 8.0 | 0.00 | 0.03 | 0.03 | 61 | 1009.0 |
| 20260509213508 | 22 | 82 | 3.2 | 6.4 | 0.00 | 0.03 | 0.03 | 60 | 1009.0 |
| 20260509213020 | 22 | 67 | 1.6 | 6.4 | 0.00 | 0.03 | 0.03 | 61 | 1009.0 |
| 20260509212506 | 22 | 69 | 3.2 | 9.7 | 0.00 | 0.03 | 0.03 | 61 | 1009.0 |
| 20260509212010 | 22 | 97 | 3.2 | 9.7 | 0.00 | 0.03 | 0.03 | 60 | 1008.9 |
| 20260509211517 | 22 | 127 | 3.2 | 9.7 | 0.00 | 0.03 | 0.03 | 60 | 1008.9 |
| 20260509211008 | 22 | 136 | 3.2 | 11.3 | 0.00 | 0.03 | 0.03 | 59 | 1008.8 |
| 20260509210507 | 22 | 97 | 4.8 | 12.9 | 0.00 | 0.03 | 0.03 | 60 | 1008.8 |
| 20260509210027 | 22 | 142 | 6.4 | 12.9 | 0.00 | 0.03 | 0.03 | 60 | 1008.8 |
| 20260509205509 | 22 | 129 | 1.6 | 11.3 | 0.00 | 0.03 | 0.03 | 59 | 1008.7 |
| 20260509205010 | 22 | 63 | 8.0 | 12.9 | 0.00 | 0.03 | 0.03 | 60 | 1008.7 |
| 20260509204515 | 22 | 33 | 6.4 | 17.7 | 0.00 | 0.03 | 0.03 | 60 | 1008.6 |
| 20260509204007 | 22 | 46 | 4.8 | 17.7 | 0.00 | 0.03 | 0.03 | 61 | 1008.5 |
| 20260509203505 | 22 | 113 | 6.4 | 12.9 | 0.00 | 0.03 | 0.03 | 61 | 1008.5 |
| 20260509203024 | 21 | 178 | 3.2 | 12.9 | 0.00 | 0.03 | 0.03 | 60 | 1008.4 |
| 20260509202511 | 21 | 125 | 3.2 | 12.9 | 0.00 | 0.03 | 0.03 | 62 | 1008.6 |
| 20260509202011 | 21 | 102 | 3.2 | 14.5 | 0.00 | 0.03 | 0.03 | 63 | 1008.7 |
| 20260509201526 | 21 | 347 | 4.8 | 14.5 | 0.00 | 0.03 | 0.03 | 63 | 1008.8 |
| 20260509201010 | 21 | 156 | 6.4 | 14.5 | 0.00 | 0.03 | 0.03 | 63 | 1008.8 |
| 20260509200507 | 21 | 67 | 6.4 | 14.5 | 0.00 | 0.03 | 0.03 | 65 | 1009.0 |
| 20260509200029 | 21 | 105 | 1.6 | 11.3 | 0.00 | 0.03 | 0.03 | 65 | 1009.1 |
| 20260509195508 | 21 | 5 | 3.2 | 9.7 | 0.00 | 0.03 | 0.03 | 67 | 1009.2 |
| 20260509195006 | 21 | 28 | 4.8 | 9.7 | 0.03 | 0.03 | 0.03 | 69 | 1009.3 |
| 20260509194526 | 20 | 57 | 1.6 | 9.7 | 0.03 | 0.03 | 0.03 | 70 | 1009.6 |
| 20260509194009 | 20 | 39 | 4.8 | 9.7 | 0.03 | 0.03 | 0.03 | 70 | 1009.7 |
| 20260509193510 | 20 | 352 | 1.6 | 8.0 | 0.03 | 0.03 | 0.03 | 69 | 1009.8 |
| 20260509193018 | 20 | 36 | 3.2 | 9.7 | 0.03 | 0.03 | 0.03 | 68 | 1009.8 |
| 20260509192508 | 20 | 27 | 4.8 | 9.7 | 0.03 | 0.03 | 0.03 | 68 | 1009.8 |
| 20260509192008 | 20 | 28 | 4.8 | 9.7 | 0.03 | 0.03 | 0.03 | 72 | 1009.8 |
| 20260509191519 | 19 | 62 | 4.8 | 9.7 | 0.03 | 0.03 | 0.03 | 74 | 1009.8 |
| 20260509191005 | 19 | 36 | 1.6 | 8.0 | 0.03 | 0.03 | 0.03 | 75 | 1009.9 |
| 20260509190507 | 18 | 46 | 1.6 | 8.0 | 0.03 | 0.03 | 0.03 | 74 | 1010.0 |
| 20260509190026 | 18 | 98 | 1.6 | 6.4 | 0.03 | 0.03 | 0.03 | 75 | 1010.1 |
| 20260509185512 | 18 | 92 | 1.6 | 6.4 | 0.03 | 0.03 | 0.03 | 75 | 1010.1 |
| 20260509185008 | 18 | 88 | 1.6 | 4.8 | 0.00 | 0.00 | 0.00 | 74 | 1010.2 |
| 20260509184535 | 18 | 51 | 1.6 | 4.8 | 0.00 | 0.00 | 0.00 | 73 | 1010.3 |
| 20260509184012 | 19 | 65 | 0.0 | 6.4 | 0.00 | 0.00 | 0.00 | 72 | 1010.3 |
| 20260509183507 | 19 | 65 | 0.0 | 6.4 | 0.00 | 0.00 | 0.00 | 70 | 1010.2 |
| 20260509183022 | 19 | 69 | 1.6 | 9.7 | 0.00 | 0.00 | 0.00 | 68 | 1010.2 |
| 20260509182509 | 19 | 119 | 3.2 | 9.7 | 0.00 | 0.00 | 0.00 | 66 | 1010.3 |
| 20260509182008 | 19 | 99 | 1.6 | 8.0 | 0.00 | 0.00 | 0.00 | 66 | 1010.4 |
| 20260509181520 | 19 | 82 | 3.2 | 11.3 | 0.00 | 0.00 | 0.00 | 65 | 1010.5 |
| 20260509181012 | 19 | 88 | 3.2 | 11.3 | 0.00 | 0.00 | 0.00 | 66 | 1010.6 |
| 20260509180506 | 19 | 65 | 3.2 | 9.7 | 0.00 | 0.00 | 0.00 | 65 | 1010.8 |
| 20260509180025 | 19 | 30 | 1.6 | 9.7 | 0.00 | 0.00 | 0.00 | 65 | 1010.9 |
| 20260509175506 | 19 | 160 | 3.2 | 9.7 | 0.00 | 0.00 | 0.00 | 64 | 1010.8 |
| 20260509175007 | 20 | 78 | 3.2 | 9.7 | 0.00 | 0.00 | 0.00 | 63 | 1010.7 |
| 20260509174522 | 20 | 37 | 1.6 | 6.4 | 0.00 | 0.00 | 0.00 | 61 | 1010.7 |
| 20260509174012 | 20 | 29 | 0.0 | 3.2 | 0.00 | 0.00 | 0.00 | 61 | 1010.7 |
| 20260509173512 | 20 | 29 | 1.6 | 4.8 | 0.00 | 0.00 | 0.00 | 61 | 1010.7 |
| 20260509173053 | 20 | 11 | 1.6 | 4.8 | 0.00 | 0.00 | 0.00 | 62 | 1010.7 |
| 20260509172507 | 20 | 331 | 0.0 | 6.4 | 0.00 | 0.00 | 0.00 | 62 | 1010.8 |
| 20260509172011 | 20 | 331 | 1.6 | 11.3 | 0.00 | 0.00 | 0.00 | 61 | 1010.9 |
| 20260509171530 | 20 | 298 | 4.8 | 11.3 | 0.00 | 0.00 | 0.00 | 61 | 1010.9 |
| 20260509171007 | 20 | 309 | 1.6 | 8.0 | 0.00 | 0.00 | 0.00 | 60 | 1010.9 |
| 20260509170507 | 20 | 265 | 3.2 | 8.0 | 0.00 | 0.00 | 0.00 | 59 | 1010.8 |
| 20260509170021 | 20 | 287 | 1.6 | 4.8 | 0.00 | 0.00 | 0.00 | 58 | 1010.8 |
| 20260509165507 | 20 | 295 | 1.6 | 8.0 | 0.00 | 0.00 | 0.00 | 58 | 1010.8 |
| 20260509165010 | 21 | 286 | 3.2 | 8.0 | 0.00 | 0.00 | 0.00 | 57 | 1010.7 |
| 20260509164523 | 21 | 237 | 1.6 | 12.9 | 0.00 | 0.00 | 0.00 | 56 | 1010.7 |
| 20260509164012 | 21 | 207 | 1.6 | 12.9 | 0.00 | 0.00 | 0.00 | 56 | 1010.8 |
| 20260509163510 | 21 | 155 | 1.6 | 11.3 | 0.00 | 0.00 | 0.00 | 57 | 1010.8 |
| 20260509163024 | 21 | 216 | 1.6 | 8.0 | 0.00 | 0.00 | 0.00 | 58 | 1010.7 |
| 20260509162511 | 21 | 264 | 0.0 | 11.3 | 0.00 | 0.00 | 0.00 | 58 | 1010.8 |
| 20260509162006 | 21 | 213 | 3.2 | 14.5 | 0.00 | 0.00 | 0.00 | 57 | 1010.8 |
| 20260509161528 | 21 | 219 | 4.8 | 14.5 | 0.00 | 0.00 | 0.00 | 59 | 1010.9 |
| 20260509161011 | 21 | 98 | 3.2 | 11.3 | 0.00 | 0.00 | 0.00 | 59 | 1011.0 |
| 20260509160508 | 21 | 169 | 4.8 | 12.9 | 0.00 | 0.00 | 0.00 | 59 | 1011.1 |
| 20260509160026 | 20 | 192 | 4.8 | 14.5 | 0.00 | 0.00 | 0.00 | 58 | 1011.1 |
| 20260509155508 | 21 | 182 | 4.8 | 14.5 | 0.00 | 0.00 | 0.00 | 57 | 1011.2 |
| 20260509155012 | 21 | 277 | 1.6 | 12.9 | 0.00 | 0.00 | 0.00 | 57 | 1011.1 |
| 20260509154522 | 21 | 269 | 4.8 | 11.3 | 0.00 | 0.00 | 0.00 | 58 | 1011.2 |
| 20260509154003 | 21 | 134 | 3.2 | 14.5 | 0.00 | 0.00 | 0.00 | 57 | 1011.1 |
| 20260509153503 | 21 | 105 | 0.0 | 14.5 | 0.00 | 0.00 | 0.00 | 56 | 1011.1 |
| 20260509153011 | 21 | 123 | 4.8 | 11.3 | 0.00 | 0.00 | 0.00 | 59 | 1011.2 |
| 20260509152503 | 21 | 277 | 3.2 | 6.4 | 0.00 | 0.00 | 0.00 | 61 | 1011.3 |
| 20260509152004 | 20 | 302 | 3.2 | 9.7 | 0.00 | 0.00 | 0.00 | 64 | 1011.5 |
| 20260509151511 | 20 | 273 | 3.2 | 9.7 | 0.00 | 0.00 | 0.00 | 61 | 1011.5 |
| 20260509151006 | 19 | 288 | 3.2 | 9.7 | 0.00 | 0.00 | 0.00 | 62 | 1011.6 |
| 20260509150504 | 19 | 234 | 3.2 | 8.0 | 0.00 | 0.00 | 0.00 | 65 | 1011.7 |
| 20260509150014 | 18 | 235 | 1.6 | 8.0 | 0.00 | 0.00 | 0.00 | 63 | 1011.7 |
| 20260509145504 | 18 | 129 | 3.2 | 8.0 | 0.00 | 0.00 | 0.00 | 65 | 1011.9 |
| 20260509145006 | 18 | 182 | 1.6 | 8.0 | 0.00 | 0.00 | 0.00 | 65 | 1012.0 |
| 20260509144514 | 17 | 170 | 3.2 | 8.0 | 0.00 | 0.00 | 0.00 | 66 | 1012.1 |
| 20260509144007 | 17 | 307 | 1.6 | 8.0 | 0.00 | 0.00 | 0.00 | 67 | 1012.1 |
| 20260509143509 | 17 | 198 | 3.2 | 11.3 | 0.00 | 0.00 | 0.00 | 66 | 1012.0 |
| 20260509143024 | 17 | 175 | 1.6 | 11.3 | 0.00 | 0.00 | 0.00 | 66 | 1012.0 |
| 20260509142506 | 17 | 178 | 1.6 | 11.3 | 0.00 | 0.00 | 0.00 | 66 | 1012.0 |